www.pogodaiklimat.ru

Погода и климат >> Архив погоды >> Кувейт >> Kuwait


АРХИВ ПОГОДЫ в Kuwait

Время (UTC), дата Ветер
(напр.,м/с)
 
Видим.   Явления Облачность Т
(С)
Тd
(С)
f
(%)
Тe
(С)
Тes
(С)
Комфортность P
(гПа)
Po
(гПа)
Тmin
(С)
Tmax
(С)
R
(мм)
R24
(мм)
S
(см)
00 7.12 штиль 0 10 км ясно +15.9 +11.5 75 +16 +16 тепло 1013.0 1013.0
03 7.12 ЮВ 3 10 км ясно +14.1 +11.9 87 +13 +13 по сезону 1014.2 1014.0
06 7.12 З 2 10 км ясно +17.4 +11.4 68 +18 +21 тепло 1016.5 1017.0
09 7.12 З 4 10 км ясно +21.7 +11.2 51 +24 +30 комфорт 1015.4 1015.0
12 7.12 СЗ 3 10 км ясно +23.1 +9.1 41 +25 +27 комфорт 1014.1 1014.0
15 7.12 штиль 0 10 км ясно +19.6 +10.4 55 +21 +21 комфорт 1015.0 1015.0
18 7.12 С 2 10 км ясно +16.4 +14.0 86 +16 +16 тепло 1016.5 1017.0 0.0 +23.6
21 7.12 Ю 2 10 км ясно +15.6 +13.1 85 +16 +16 тепло 1016.5 1017.0 +13.1 +23.7
00 8.12 ЮЗ 2 10 км ясно +14.2 +12.5 90 +14 +14 тепло 1016.0 1016.0
03 8.12 СВ 2 10 км 4/0
[Ac trans]
+15.1 +12.1 82 +15 +15 тепло 1017.1 1017.0
06 8.12 Ю 5 10 км 5/5 600 м
[Cu hum]
+19.0 +11.0 60 +20 +20 тепло 1018.7 1019.0
09 8.12 ЮЗ 5 10 км 3/0 2000 м
[Ac lent]
+24.4 +8.3 36 +25 +29 комфорт 1017.6 1018.0
12 8.12 Ю 3 10 км 3/3 600 м
[Cu hum Ac und]
+25.4 +7.5 32 +25 +27 комфорт 1016.3 1016.0
15 8.12 В 4 10 км 1/0
[Ac trans]
+20.8 +12.6 59 +23 +23 комфорт 1017.5 1018.0
18 8.12 ЮВ 2 10 км ясно +19.4 +14.1 71 +21 +21 комфорт 1019.1 1019.0
21 8.12 штиль 0 10 км 3/0
[Ci fib]
+17.0 +16.0 94 +17 +17 тепло 1018.7 1019.0 +13.2 +25.8
00 9.12 З 2 10 км 3/0
[Ac trans]
+14.9 +14.6 98 +15 +15 тепло 1018.3 1018.0
03 9.12 ЮЗ 2 7000 м дымка 4/3 600 м
[Cu hum Ac trans]
+14.9 +14.7 99 +15 +15 тепло 1018.8 1019.0
06 9.12 штиль 0 6000 м дымка 5/0 2000 м
[Ac trans]
+19.1 +17.2 89 +21 +24 комфорт 1020.3 1020.0
09 9.12 ЮВ 2 10 км 8/0 2000 м
[Ac trans]
+23.5 +14.1 56 +26 +30 жарко 1019.0 1019.0
12 9.12 ЮВ 3 8000 м мгла 9/5 1000 м
[Sc diur, vesp Ac trans]
+22.7 +13.2 55 +26 +26 жарко 1017.8 1018.0
15 9.12 штиль 0 8000 м мгла 8/4 1000 м
[Sc diur, vesp Ac trans]
+20.6 +13.7 65 +23 +23 комфорт 1018.5 1019.0
18 9.12 штиль 0 10 км 8/0 2000 м
[Ac trans]
+18.8 +14.9 78 +20 +20 тепло 1019.3 1019.0
21 9.12 штиль 0 10 км 5/0
[Ci fib]
+16.6 +14.5 87 +16 +16 тепло 1018.6 1019.0 +14.7 +24.2
00 10.12 штиль 0 10 км 5/0
[Ci fib]
+15.9 +14.3 90 +16 +16 тепло 1018.3 1018.0
03 10.12 Ю 2 8000 м дымка 5/0
[Ci fib]
+14.5 +14.5 100 +14 +14 тепло 1018.2 1018.0
06 10.12 штиль 0 3000 м дымка 8/3 1000 м
[St Ac trans]
+17.9 +15.9 88 +18 +20 тепло 1019.3 1019.0
09 10.12 С 3 6000 м мгла 8/3
[St Ac trans]
+21.3 +11.3 53 +23 +26 комфорт 1017.8 1018.0
12 10.12 С 3 10 км 8/3
[St Ac trans]
+21.9 +10.3 48 +24 +25 комфорт 1017.0 1017.0
15 10.12 штиль 0 10 км 5/0
[Ac trans]
+19.2 +11.7 62 +20 +20 тепло 1018.6 1019.0
18 10.12 штиль 0 7000 м мгла 4/0
[Ac trans]
+17.0 +13.1 78 +17 +17 тепло 1019.2 1019.0
21 10.12 С 3 7000 м мгла ясно +17.1 +12.9 76 +17 +17 тепло 1019.4 1019.0 +14.2 +22.3
03 11.12 СЗ 4 5000 м дымка ясно +15.6 +12.9 84 +15 +15 тепло 1020.9 1021.0
06 11.12 С 4 7000 м мгла ясно +17.7 +12.2 70 +17 +20 тепло 1022.5 1023.0
09 11.12 С 5 8000 м мгла ясно +20.5 +10.9 54 +22 +26 комфорт 1021.5 1022.0
12 11.12 С 5 10 км ясно +21.6 +8.8 44 +23 +24 комфорт 1020.1 1020.0
15 11.12 С 4 10 км ясно +20.0 +8.2 47 +21 +21 комфорт 1021.1 1021.0
18 11.12 С 3 10 км ясно +17.3 +9.6 61 +17 +17 тепло 1021.7 1022.0
21 11.12 С 3 10 км ясно +15.6 +10.6 72 +15 +15 тепло 1022.0 1022.0 +13.3 +21.9
00 12.12 СЗ 3 10 км ясно +13.7 +10.3 80 +13 +13 тепло 1021.7 1022.0
03 12.12 З 2 10 км ясно +11.1 +10.1 94 +10 +10 по сезону 1022.3 1022.0
06 12.12 штиль 0 7000 м мгла 3/0
[Ci fib]
+16.2 +11.3 73 +16 +21 тепло 1023.6 1024.0
09 12.12 С 4 10 км ясно +20.3 +9.2 49 +22 +27 комфорт 1021.5 1022.0
12 12.12 СВ 4 10 км ясно +21.5 +9.6 47 +23 +25 комфорт 1020.4 1020.0
15 12.12 В 2 10 км ясно +18.5 +10.1 58 +20 +20 тепло 1020.9 1021.0
18 12.12 Ю 3 10 км ясно +14.1 +11.4 84 +13 +13 по сезону 1021.4 1021.0
21 12.12 Ю 2 10 км ясно +12.9 +11.4 91 +12 +12 по сезону 1021.2 1021.0 +10.2 +21.8
00 13.12 Ю 2 10 км ясно +12.2 +11.6 96 +11 +11 по сезону 1021.2 1021.0
03 13.12 штиль 0 6000 м дымка ясно +10.6 +10.3 98 +10 +10 по сезону 1022.0 1022.0
06 13.12 штиль 0 5000 м мгла ясно +16.2 +11.3 73 +16 +21 тепло 1023.6 1024.0
09 13.12 штиль 0 6000 м мгла ясно +22.4 +11.8 51 +25 +36 комфорт 1022.0 1022.0
12 13.12 СВ 2 10 км ясно +21.5 +10.9 51 +23 +26 комфорт 1020.8 1021.0
15 13.12 ЮВ 2 10 км ясно +17.9 +12.2 69 +19 +19 тепло 1022.3 1022.0
18 13.12 штиль 0 10 км ясно +14.7 +12.9 89 +14 +14 по сезону 1023.3 1023.0
21 13.12 штиль 0 10 км ясно +13.6 +12.3 92 +13 +13 по сезону 1022.5 1023.0 +10.1 +23.2

 

Местоположение метеостанции Kuwait (Кувейт): широта 29.22 долгота 47.97 высота над уровнем моря 48 м.

В архиве по умолчанию представлена погода в Kuwait за последнюю неделю. Архивные данные за месяц целиком и за предыдущие месяцы, начиная с января 2011 года, Вы можете получить, выбрав интересующий диапазон дат из раскрывающегося списка и нажав кнопку "Ввод!".


*Определитесь, кто Вы:
робот инопланетянин человек

Внимание! Время в таблицах - всемирное. Для получения местного времени необходимо прибавить поправку, которая в Kuwait равна 3 ч.

Смотрите также архив погоды в соседних городах и на ближайших метеорологических станциях:

Погода в Experimental Farm (Кувейт) (8 км)
Погода в Kuwait City (Кувейт) (14 км)
Погода в Al-Shuaiba (Кувейт) (19 км)
Погода в Sulaibiya (Кувейт) (25 км)
Погода в Jahra (Кувейт) (31 км)
Погода в Failaka Island (Кувейт) (41 км)
Погода в Minagish (Кувейт) (46 км)
Погода в Juluiah Port (Кувейт) (49 км)
Погода в Jal Aliyah (Кувейт) (58 км)
Погода в Sabriyah (Кувейт) (60 км)

Пояснения к столбцам:

Ветер - указаны скорость ветра в м/с - средняя за 10 мин, порывы в срок и между сроками (в фигурных скобках) и направление, откуда дует ветер: С - северный, СВ - северо-восточный, В - восточный, ЮВ - юго-восточный, Ю - южный, ЮЗ - юго-западный, З - западный, СЗ - северо-западный.
Видимость - горизонтальная дальность видимости в метрах или километрах. При видимости от 1 до 10 км при отсутствии осадков обычно наблюдается дымка, при ухудшении видимости до 1 км и менее - туман. В сухую погоду видимость может ухудшаться дымом, пылью или мглою.
Явления - указаны атмосферные явления, наблюдавшиеся в срок или в последний час перед сроком; фигурными скобками обозначены явления, наблюдавшиеся между сроками (за 1-3 часа до срока); квадратными скобками обозначены град или гололедные отложения с указанием их диаметра в мм.
Облачность - указаны через наклонную черту общая и нижняя облачность в баллах и высота нижней границы облаков в метрах; квадратными скобками обозначены формы облаков: Ci - перистые, Cs - перисто-слоистые, Cc - перисто-кучевые, Ac - высококучевые, As - высокослоистые, Sc - слоисто-кучевые, Ns - слоисто-дождевые, Cu - кучевые, Cb - кучево-дождевые. Подробнее классификацию облаков см. в Атласе облаков (PDF).
T - Температура воздуха - температура, измеренная на высоте 2 м над землей.
Td - Температура точки росы - температура, при понижении до которой содержащийся в воздухе водяной пар достигнет насыщения.
f - Относительная влажность воздуха - влажноcть воздуха, измеренная на высоте 2 м над землей.
Te - Эффективная температура - температура, которую ощущает одетый по сезону человек в тени. Характеристика душности погоды. При расчете учитывается влияние влажности воздуха и скорости ветра на теплоощущения человека.
Tes - Эффективная температура на солнце - температура, которую ощущает человек, с поправкой на солнечный нагрев. Характеристика знойности погоды. Зависит от высоты солнца над горизонтом, облачности и скорости ветра. Ночью, в пасмурную погоду, а также при ветре 12 м/с и более поправка равна нулю.
P - Атмосферное давление - приведенное к уровню моря атмосферное давление.
Po - Атмосферное давление - измеренное на уровне метеостанции атмосферное давление.
Tmin - Минимальная температура - минимум температуры воздуха на высоте 2 м над землей.
Tmax - Максимальная температура - максимум температуры воздуха на высоте 2 м над землей.
R - Количество осадков - Количество выпавших осадков за период времени, мм. При наведении курсора мыши на число - период времени, за который выпало указанное количество осадков.
R24 - Количество осадков - Количество выпавших осадков за 24 часа, мм.
S - Снежный покров - Высота снежного покрова, см. При наведении курсора мыши на число - состояние снежного покрова и степень покрытия местности в баллах.